sat.trackr.live / text

‹ back to catalog

AC1-002

NORAD 66745 · 2025-276CH

PAYLOAD ACTIVE UNKNOWN

§ Identity

Operator
Country
UK
Launch date
2025-11-28
Launch site
AFWTR
Launch vehicle
Mass (kg)
RCS (m²)

External: N2YO · Heavens-Above · Gunter

§ Orbital elements

Epoch: 2026-09-20T10:34:15.798432Z

Period
94.81 min
Inclination
97.4114°
Eccentricity
0.0003085
Mean motion
15.18776380 rev/d
Perigee alt
507.4 km
Apogee alt
511.7 km
Semi-major
6,887.7 km
B*
7.1824e-5
RAAN
334.9621°
Arg perigee
48.5575°
Mean anomaly
311.5924°
Rev number
4,486

§ Raw data

AC1-0021 66745U 25276CH  26263.44046063  .00001426  00000+0  71824-4 0  99942 66745  97.4114 334.9621 0003085  48.5575 311.5924 15.18776380 44867

JSON: /api/v1/satellites/66745 · /tle

For live sub-satellite position, see the globe view (requires WebGL).

§ Visibility from observer

Set your observer location to see the next 7 days of passes ≥ 10°. The values pass through the URL so the page stays shareable.

No JS? Fill the form by hand. The geolocation button needs JavaScript.